Home > Weather > Tehran > Past weeks

Flag for Iran Past Weather in Tehran, Iran — Yesterday and Last 2 Weeks

Now
100 °F

Sunny.


Feels Like: 95 °F
Forecast: 81 / 99 °F
Wind: 7 mph from Southeast

Location: Tehran-Mehrabad

Current Time: Jul 25, 2016 at 8:24:46 PM

Latest Report: Jul 25, 2016 at 8:00 PM


Visibility: 10 mi

Pressure: 29.68 "Hg (26.08 "Hg at 1179m altitude)

Humidity: 8%

Dew Point: 28 °F

Location of TehranLocation

Past Weather in Tehran — Graph

°F

Tehran Temperature Yesterday

Maximum temperature yesterday: 102 °F (at 5:30 PM)
Minimum temperature yesterday: 79 °F (at 5:30 AM)
Average temperature yesterday: 93 °F

High & Low Weather Summary for the Past Weeks

 TemperatureHumidityPressure
High104 °F (Jul 20, 2:30 PM)53% (Jul 12, 5:00 AM)30.07 "Hg (Jul 12, 5:00 AM)
Low68 °F (Jul 13, 4:30 AM)6% (Jul 25, 6:00 PM)29.68 "Hg (Jul 11, 5:00 PM)
Average91 °F18%29.86 "Hg
* Reported Jul 10 6:30 PM — Jul 25 7:00 PM, Tehran, Weather by CustomWeather, © 2016

Note: Actual official high and low records may vary slightly from our data, if they occured in-between our weather recording intervals... More about our weather records

Advertising

Tehran Weather History for the Previous 24 Hours

Scroll right to see more
 ConditionsComfort  
Time TempWeatherWind HumidityBarometerVisibility
7:00 PM
Mon, Jul 25
102 °FSunny.9 mph7%29.68 "Hg10 mi
6:30 PM102 °FSunny.9 mph7%29.68 "Hg10 mi
6:00 PM104 °FSunny.7 mph6%29.68 "Hg10 mi
5:30 PM102 °FSunny.7 mph7%29.68 "Hg10 mi
5:00 PM102 °FSunny.9 mph7%29.68 "Hg10 mi
4:30 PM102 °FSunny.9 mph7%29.71 "Hg10 mi
4:00 PM102 °FSunny.5 mph7%29.71 "Hg10 mi
3:30 PM102 °FSunny.12 mph7%29.71 "Hg10 mi
3:00 PM100 °FSunny.14 mph7%29.71 "Hg10 mi
2:30 PM99 °FSunny.12 mph7%29.74 "Hg10 mi
2:00 PM100 °FSunny.9 mph8%29.74 "Hg10 mi
1:30 PM99 °FPassing clouds.12 mph8%29.77 "HgN/A
1:00 PM97 °FPassing clouds.12 mph9%29.77 "HgN/A
12:30 PM97 °FPassing clouds.12 mph8%29.77 "HgN/A
12:00 PM97 °FSunny.14 mph8%29.77 "Hg10 mi
11:30 AM97 °FSunny.9 mph9%29.80 "Hg10 mi
11:00 AM97 °FPassing clouds.9 mph9%29.80 "HgN/A
10:30 AM97 °FSunny.9 mph8%29.80 "Hg10 mi
10:00 AM97 °FPassing clouds.7 mph7%29.80 "HgN/A
9:30 AM95 °FPassing clouds.12 mph8%29.80 "HgN/A
9:00 AM95 °FPassing clouds.9 mph9%29.77 "HgN/A
8:30 AM93 °FPassing clouds.7 mph11%29.77 "HgN/A
8:00 AM91 °FPassing clouds.9 mph12%29.77 "HgN/A
7:30 AM90 °FPassing clouds.7 mph13%29.77 "HgN/A
7:00 AM88 °FPassing clouds.5 mph13%29.77 "HgN/A
6:30 AM88 °FPassing clouds.7 mph13%29.74 "HgN/A
6:00 AM88 °FPassing clouds.7 mph13%29.74 "HgN/A
5:30 AM88 °FClear.7 mph13%29.74 "Hg10 mi
5:00 AM88 °FClear.6 mph13%29.74 "Hg10 mi
4:30 AM86 °FClear.No wind18%29.74 "Hg10 mi
4:00 AM84 °FPassing clouds.5 mph18%29.74 "HgN/A
3:30 AM84 °FPassing clouds.5 mph20%29.74 "HgN/A
2:30 AM90 °FPassing clouds.7 mph12%29.74 "HgN/A
2:00 AM90 °FPassing clouds.7 mph12%29.74 "HgN/A
1:30 AM91 °FPassing clouds.7 mph9%29.74 "HgN/A
1:00 AM93 °FPassing clouds.7 mph9%29.74 "HgN/A
12:30 AM93 °FPassing clouds.7 mph9%29.74 "HgN/A
12:00 AM95 °FPassing clouds.12 mph12%29.74 "HgN/A
11:30 PM
Sun, Jul 24
95 °FPassing clouds.12 mph12%29.74 "HgN/A
11:00 PM95 °FPassing clouds.12 mph12%29.74 "HgN/A
10:30 PM97 °FPassing clouds.12 mph12%29.71 "HgN/A
10:00 PM97 °FPassing clouds.16 mph8%29.71 "HgN/A
9:30 PM97 °FPassing clouds.9 mph9%29.71 "HgN/A
9:00 PM97 °FPassing clouds.12 mph9%29.68 "HgN/A
8:30 PM97 °FPassing clouds.14 mph9%29.68 "HgN/A
8:00 PM99 °FPassing clouds.14 mph8%29.68 "HgN/A
Weather by CustomWeather, © 2016

See weather overviewHow to use our weather pages